| time (UTC) | temp F | wind direction | speed knots | gust knots | rain 1hr in | rain 24hr in | rain mn in | humidity % | barometer mb |
| 20260906160642 | 78 | 134 | 1.7 | 6.1 | 0.00 | 0.00 | 0.00 | 41 | 996.7 |
| 20260906160136 | 78 | 119 | 1.7 | 6.1 | 0.00 | 0.00 | 0.00 | 40 | 996.8 |
| 20260906155630 | 77 | 173 | 1.7 | 6.1 | 0.00 | 0.00 | 0.00 | 42 | 996.7 |
| 20260906154619 | 77 | 123 | 2.6 | 5.2 | 0.00 | 0.00 | 0.00 | 41 | 996.8 |
| 20260906154118 | 77 | 131 | 1.7 | 4.3 | 0.00 | 0.00 | 0.00 | 42 | 996.8 |
| 20260906153616 | 76 | 123 | 2.6 | 6.1 | 0.00 | 0.00 | 0.00 | 42 | 996.9 |
| 20260906153117 | 76 | 123 | 2.6 | 6.1 | 0.00 | 0.00 | 0.00 | 41 | 996.8 |
| 20260906152616 | 77 | 67 | 1.7 | 6.1 | 0.00 | 0.00 | 0.00 | 41 | 996.7 |
| 20260906152117 | 76 | 140 | 1.7 | 3.5 | 0.00 | 0.00 | 0.00 | 43 | 996.6 |
| 20260906151614 | 76 | 80 | 1.7 | 7.0 | 0.00 | 0.00 | 0.00 | 43 | 996.7 |
| 20260906151114 | 75 | 150 | 1.7 | 7.0 | 0.00 | 0.00 | 0.00 | 43 | 996.5 |
| 20260906150614 | 75 | 5 | 2.6 | 6.1 | 0.00 | 0.00 | 0.00 | 45 | 996.6 |
| 20260906145614 | 74 | 112 | 1.7 | 6.1 | 0.00 | 0.00 | 0.00 | 45 | 996.6 |
| 20260906145115 | 74 | 45 | 1.7 | 5.2 | 0.00 | 0.00 | 0.00 | 45 | 996.6 |
| 20260906144614 | 74 | 144 | 1.7 | 6.1 | 0.00 | 0.00 | 0.00 | 45 | 996.5 |
| 20260906144114 | 74 | 82 | 0.9 | 6.1 | 0.00 | 0.00 | 0.00 | 46 | 996.4 |
| 20260906143614 | 73 | 76 | 1.7 | 6.1 | 0.00 | 0.00 | 0.00 | 46 | 996.3 |
| 20260906143114 | 73 | 134 | 1.7 | 6.1 | 0.00 | 0.00 | 0.00 | 46 | 996.3 |
| 20260906142614 | 73 | 133 | 1.7 | 3.5 | 0.00 | 0.00 | 0.00 | 47 | 996.3 |
| 20260906142115 | 73 | 340 | 1.7 | 3.5 | 0.00 | 0.00 | 0.00 | 47 | 996.4 |
| 20260906141608 | 72 | 98 | 0.9 | 3.5 | 0.00 | 0.00 | 0.00 | 47 | 996.4 |
| 20260906141103 | 72 | 103 | 0.9 | 3.5 | 0.00 | 0.00 | 0.00 | 48 | 996.5 |
| 20260906140557 | 71 | 113 | 0.9 | 2.6 | 0.00 | 0.00 | 0.00 | 49 | 996.4 |
| 20260906140050 | 70 | 125 | 0.9 | 2.6 | 0.00 | 0.00 | 0.00 | 49 | 996.5 |
| 20260906135544 | 70 | 107 | 0.9 | 3.5 | 0.00 | 0.00 | 0.00 | 50 | 996.5 |
| 20260906135040 | 69 | 75 | 0.9 | 3.5 | 0.00 | 0.00 | 0.00 | 50 | 996.5 |
| 20260906134540 | 69 | 101 | 0.9 | 3.5 | 0.00 | 0.00 | 0.00 | 50 | 996.5 |
| 20260906134040 | 69 | 122 | 0.9 | 3.5 | 0.00 | 0.00 | 0.00 | 50 | 996.6 |
| 20260906133540 | 69 | 123 | 0.0 | 2.6 | 0.00 | 0.00 | 0.00 | 50 | 996.7 |
| 20260906132540 | 68 | 112 | 0.9 | 2.6 | 0.00 | 0.00 | 0.00 | 50 | 996.6 |
| 20260906132040 | 68 | 111 | 0.9 | 2.6 | 0.00 | 0.00 | 0.00 | 50 | 996.7 |
| 20260906131539 | 68 | 106 | 0.9 | 3.5 | 0.00 | 0.00 | 0.00 | 50 | 996.6 |
| 20260906131040 | 68 | 98 | 0.0 | 3.5 | 0.00 | 0.00 | 0.00 | 50 | 996.6 |
| 20260906130540 | 68 | 180 | 0.0 | 0.9 | 0.00 | 0.00 | 0.00 | 50 | 996.6 |
| 20260906125536 | 68 | 196 | 0.0 | 1.7 | 0.00 | 0.00 | 0.00 | 50 | 996.6 |
| 20260906125036 | 68 | 161 | 0.0 | 0.0 | 0.00 | 0.00 | 0.00 | 50 | 996.6 |
| 20260906124536 | 68 | 161 | 0.0 | 2.6 | 0.00 | 0.00 | 0.00 | 50 | 996.7 |
| 20260906124037 | 68 | 130 | 0.0 | 2.6 | 0.00 | 0.00 | 0.00 | 49 | 996.6 |
| 20260906123536 | 68 | 132 | 0.9 | 3.5 | 0.00 | 0.00 | 0.00 | 50 | 996.4 |
| 20260906123036 | 67 | 132 | 0.9 | 3.5 | 0.00 | 0.00 | 0.00 | 49 | 996.4 |
| 20260906122536 | 67 | 236 | 0.9 | 3.5 | 0.00 | 0.00 | 0.00 | 50 | 996.2 |
| 20260906122037 | 67 | 173 | 1.7 | 5.2 | 0.00 | 0.00 | 0.00 | 50 | 996.1 |
| 20260906121037 | 67 | 154 | 2.6 | 6.1 | 0.00 | 0.00 | 0.00 | 50 | 995.9 |
| 20260906120536 | 67 | 119 | 1.7 | 6.1 | 0.00 | 0.00 | 0.00 | 50 | 995.9 |
| 20260906120037 | 67 | 155 | 2.6 | 7.8 | 0.00 | 0.00 | 0.00 | 50 | 995.9 |
| 20260906115536 | 67 | 175 | 3.5 | 7.8 | 0.00 | 0.00 | 0.00 | 50 | 995.8 |
| 20260906115036 | 67 | 109 | 2.6 | 6.1 | 0.00 | 0.00 | 0.00 | 50 | 995.7 |
| 20260906114536 | 67 | 100 | 1.7 | 6.1 | 0.00 | 0.00 | 0.00 | 50 | 995.7 |
| 20260906114035 | 66 | 88 | 1.7 | 5.2 | 0.00 | 0.00 | 0.00 | 51 | 995.8 |
| 20260906113536 | 67 | 128 | 1.7 | 5.2 | 0.00 | 0.00 | 0.00 | 51 | 995.8 |
| 20260906113029 | 67 | 132 | 1.7 | 5.2 | 0.00 | 0.00 | 0.00 | 51 | 995.8 |
| 20260906112017 | 66 | 121 | 2.6 | 6.1 | 0.00 | 0.00 | 0.00 | 51 | 995.6 |
| 20260906111516 | 67 | 94 | 2.6 | 7.0 | 0.00 | 0.00 | 0.00 | 51 | 995.6 |
| 20260906111016 | 67 | 101 | 1.7 | 7.0 | 0.00 | 0.00 | 0.00 | 51 | 995.6 |
| 20260906110514 | 67 | 144 | 0.9 | 3.5 | 0.00 | 0.00 | 0.00 | 51 | 995.6 |
| 20260906110014 | 67 | 86 | 0.9 | 5.2 | 0.00 | 0.00 | 0.00 | 51 | 995.5 |
| 20260906105514 | 67 | 77 | 1.7 | 6.1 | 0.00 | 0.00 | 0.00 | 51 | 995.4 |
| 20260906104511 | 67 | 115 | 1.7 | 7.8 | 0.00 | 0.00 | 0.00 | 51 | 995.4 |
| 20260906104012 | 67 | 98 | 1.7 | 7.8 | 0.00 | 0.00 | 0.00 | 51 | 995.3 |
| 20260906103510 | 67 | 119 | 1.7 | 7.8 | 0.00 | 0.00 | 0.00 | 51 | 995.5 |
| 20260906103009 | 67 | 89 | 1.7 | 7.8 | 0.00 | 0.00 | 0.00 | 51 | 995.4 |
| 20260906102006 | 68 | 107 | 0.9 | 1.7 | 0.00 | 0.00 | 0.00 | 51 | 995.1 |
| 20260906101506 | 68 | 100 | 0.9 | 6.1 | 0.00 | 0.00 | 0.00 | 52 | 995.0 |
| 20260906100506 | 68 | 112 | 1.7 | 7.0 | 0.00 | 0.00 | 0.00 | 52 | 994.7 |
| 20260906100004 | 68 | 115 | 1.7 | 7.0 | 0.00 | 0.00 | 0.00 | 52 | 994.7 |
| 20260906095502 | 68 | 149 | 1.7 | 6.1 | 0.00 | 0.00 | 0.00 | 53 | 994.6 |
| 20260906095001 | 68 | 175 | 2.6 | 7.0 | 0.00 | 0.00 | 0.00 | 53 | 994.7 |
| 20260906093955 | 68 | 105 | 0.9 | 2.6 | 0.00 | 0.00 | 0.00 | 53 | 994.6 |
| 20260906093450 | 68 | 103 | 0.9 | 3.5 | 0.00 | 0.00 | 0.00 | 53 | 994.7 |
| 20260906092942 | 68 | 102 | 1.7 | 3.5 | 0.00 | 0.00 | 0.00 | 53 | 994.6 |
| 20260906092437 | 68 | 101 | 1.7 | 5.2 | 0.00 | 0.00 | 0.00 | 53 | 994.6 |
| 20260906091931 | 68 | 103 | 1.7 | 3.5 | 0.00 | 0.00 | 0.00 | 53 | 994.7 |
| 20260906091425 | 68 | 107 | 1.7 | 3.5 | 0.00 | 0.00 | 0.00 | 53 | 994.7 |
| 20260906090919 | 68 | 130 | 1.7 | 3.5 | 0.00 | 0.00 | 0.00 | 53 | 994.7 |
| 20260906090413 | 69 | 121 | 1.7 | 5.2 | 0.00 | 0.00 | 0.00 | 53 | 994.9 |
| 20260906085908 | 69 | 81 | 1.7 | 6.1 | 0.00 | 0.00 | 0.00 | 53 | 994.8 |
| 20260906085404 | 69 | 117 | 1.7 | 6.1 | 0.00 | 0.00 | 0.00 | 53 | 994.8 |
| 20260906084349 | 69 | 118 | 1.7 | 6.1 | 0.00 | 0.00 | 0.00 | 53 | 994.6 |
| 20260906083843 | 69 | 97 | 1.7 | 4.3 | 0.00 | 0.00 | 0.00 | 53 | 994.5 |
| 20260906083337 | 69 | 128 | 2.6 | 5.2 | 0.00 | 0.00 | 0.00 | 53 | 994.5 |
| 20260906082831 | 69 | 128 | 1.7 | 5.2 | 0.00 | 0.00 | 0.00 | 53 | 994.7 |
| 20260906082325 | 69 | 132 | 0.9 | 3.5 | 0.00 | 0.00 | 0.00 | 53 | 994.7 |
| 20260906081819 | 69 | 140 | 1.7 | 5.2 | 0.00 | 0.00 | 0.00 | 53 | 994.6 |
| 20260906081313 | 69 | 114 | 1.7 | 5.2 | 0.00 | 0.00 | 0.00 | 53 | 994.6 |
| 20260906080301 | 70 | 119 | 0.9 | 5.2 | 0.00 | 0.00 | 0.00 | 53 | 994.7 |
| 20260906075756 | 70 | 148 | 0.9 | 5.2 | 0.00 | 0.00 | 0.00 | 53 | 994.9 |
| 20260906074744 | 70 | 103 | 1.7 | 5.2 | 0.00 | 0.00 | 0.00 | 53 | 994.9 |
| 20260906074237 | 70 | 124 | 0.9 | 5.2 | 0.00 | 0.00 | 0.00 | 53 | 994.8 |
| 20260906073731 | 70 | 104 | 1.7 | 3.5 | 0.00 | 0.00 | 0.00 | 53 | 994.8 |
| 20260906073225 | 70 | 104 | 1.7 | 5.2 | 0.00 | 0.00 | 0.00 | 52 | 994.8 |
| 20260906072720 | 70 | 79 | 1.7 | 7.0 | 0.00 | 0.00 | 0.00 | 53 | 994.7 |
| 20260906072213 | 70 | 133 | 2.6 | 7.0 | 0.00 | 0.00 | 0.00 | 52 | 994.7 |
| 20260906071202 | 70 | 74 | 2.6 | 7.8 | 0.00 | 0.00 | 0.00 | 53 | 994.6 |
| 20260906070656 | 71 | 119 | 2.6 | 6.1 | 0.00 | 0.00 | 0.00 | 52 | 994.7 |
| 20260906070150 | 71 | 122 | 3.5 | 7.8 | 0.00 | 0.00 | 0.00 | 52 | 994.8 |
| 20260906065644 | 71 | 101 | 3.5 | 7.8 | 0.00 | 0.00 | 0.00 | 52 | 994.9 |
| 20260906064632 | 71 | 111 | 2.6 | 6.1 | 0.00 | 0.00 | 0.00 | 51 | 994.9 |
| 20260906063620 | 71 | 114 | 2.6 | 7.0 | 0.00 | 0.00 | 0.00 | 51 | 995.0 |
| 20260906063114 | 72 | 120 | 3.5 | 8.7 | 0.00 | 0.00 | 0.00 | 51 | 995.0 |
| 20260906062608 | 72 | 125 | 3.5 | 8.7 | 0.00 | 0.00 | 0.00 | 50 | 995.1 |
| 20260906061601 | 72 | 142 | 3.5 | 9.6 | 0.00 | 0.00 | 0.00 | 50 | 995.2 |
| 20260906061059 | 72 | 91 | 3.5 | 9.6 | 0.00 | 0.00 | 0.00 | 49 | 995.1 |
| 20260906060559 | 72 | 122 | 4.3 | 9.6 | 0.00 | 0.00 | 0.00 | 50 | 995.2 |
| 20260906055600 | 73 | 109 | 4.3 | 7.8 | 0.00 | 0.00 | 0.00 | 50 | 995.1 |
| 20260906055059 | 73 | 120 | 4.3 | 10.4 | 0.00 | 0.00 | 0.00 | 51 | 995.1 |
| 20260906054557 | 73 | 114 | 3.5 | 10.4 | 0.00 | 0.00 | 0.00 | 51 | 995.1 |
| 20260906053055 | 73 | 105 | 2.6 | 7.8 | 0.00 | 0.00 | 0.00 | 52 | 995.1 |
| 20260906051555 | 74 | 129 | 3.5 | 7.0 | 0.00 | 0.00 | 0.00 | 51 | 994.9 |
| 20260906051055 | 74 | 79 | 2.6 | 7.0 | 0.00 | 0.00 | 0.00 | 51 | 994.8 |
| 20260906050556 | 74 | 95 | 0.9 | 6.1 | 0.00 | 0.00 | 0.00 | 51 | 994.8 |
| 20260906050054 | 74 | 80 | 1.7 | 5.2 | 0.00 | 0.00 | 0.00 | 50 | 994.7 |
| 20260906045553 | 74 | 100 | 0.9 | 5.2 | 0.00 | 0.00 | 0.00 | 50 | 994.8 |
| 20260906045053 | 74 | 92 | 0.9 | 5.2 | 0.00 | 0.00 | 0.00 | 50 | 994.7 |
| 20260906044547 | 74 | 53 | 1.7 | 4.3 | 0.00 | 0.00 | 0.00 | 50 | 994.8 |
| 20260906044041 | 75 | 48 | 1.7 | 4.3 | 0.00 | 0.00 | 0.00 | 50 | 994.7 |
| 20260906043535 | 75 | 44 | 1.7 | 5.2 | 0.00 | 0.00 | 0.00 | 49 | 994.7 |
| 20260906043029 | 75 | 24 | 1.7 | 5.2 | 0.00 | 0.00 | 0.00 | 49 | 994.9 |
| 20260906042523 | 75 | 36 | 0.9 | 3.5 | 0.00 | 0.00 | 0.00 | 49 | 994.9 |
| 20260906042017 | 75 | 49 | 1.7 | 7.0 | 0.00 | 0.00 | 0.00 | 49 | 994.8 |
| 20260906041511 | 75 | 44 | 1.7 | 7.0 | 0.00 | 0.00 | 0.00 | 49 | 994.7 |
| 20260906041005 | 75 | 43 | 1.7 | 5.2 | 0.00 | 0.00 | 0.00 | 49 | 994.4 |
| 20260906040500 | 75 | 59 | 1.7 | 5.2 | 0.00 | 0.00 | 0.00 | 49 | 994.5 |
| 20260906035953 | 75 | 83 | 1.7 | 5.2 | 0.00 | 0.00 | 0.00 | 48 | 994.4 |
| 20260906035447 | 75 | 32 | 1.7 | 5.2 | 0.00 | 0.00 | 0.00 | 48 | 994.3 |
| 20260906034941 | 75 | 19 | 0.9 | 4.3 | 0.00 | 0.00 | 0.00 | 48 | 994.1 |
| 20260906034435 | 76 | 90 | 0.9 | 4.3 | 0.00 | 0.00 | 0.00 | 48 | 993.8 |
| 20260906033929 | 76 | 35 | 1.7 | 4.3 | 0.00 | 0.00 | 0.00 | 48 | 993.8 |
| 20260906033424 | 76 | 30 | 1.7 | 5.2 | 0.00 | 0.00 | 0.00 | 48 | 993.8 |
| 20260906032917 | 76 | 75 | 1.7 | 5.2 | 0.00 | 0.00 | 0.00 | 47 | 993.8 |
| 20260906032411 | 76 | 38 | 1.7 | 4.3 | 0.00 | 0.00 | 0.00 | 47 | 993.8 |
| 20260906031905 | 76 | 33 | 1.7 | 4.3 | 0.00 | 0.00 | 0.00 | 47 | 993.7 |
| 20260906031401 | 76 | 32 | 0.9 | 7.0 | 0.00 | 0.00 | 0.00 | 47 | 993.6 |
| 20260906030853 | 76 | 68 | 1.7 | 7.0 | 0.00 | 0.00 | 0.00 | 47 | 993.7 |
| 20260906030347 | 76 | 34 | 2.6 | 7.0 | 0.00 | 0.00 | 0.00 | 47 | 993.5 |
| 20260906025841 | 76 | 38 | 1.7 | 7.0 | 0.00 | 0.00 | 0.00 | 47 | 993.5 |
| 20260906025335 | 76 | 53 | 1.7 | 3.5 | 0.00 | 0.00 | 0.00 | 47 | 993.4 |
| 20260906024324 | 76 | 32 | 1.7 | 4.3 | 0.00 | 0.00 | 0.00 | 47 | 993.6 |
| 20260906022805 | 77 | 51 | 0.9 | 4.3 | 0.00 | 0.00 | 0.00 | 46 | 993.3 |
| 20260906022300 | 77 | 38 | 0.9 | 4.3 | 0.00 | 0.00 | 0.00 | 46 | 993.3 |
| 20260906021248 | 77 | 71 | 0.9 | 2.6 | 0.00 | 0.00 | 0.00 | 47 | 993.1 |
| 20260906020742 | 77 | 63 | 0.9 | 3.5 | 0.00 | 0.00 | 0.00 | 46 | 992.9 |
| 20260906020235 | 77 | 124 | 1.7 | 3.5 | 0.00 | 0.00 | 0.00 | 46 | 992.8 |
| 20260906015223 | 77 | 126 | 1.7 | 3.5 | 0.00 | 0.00 | 0.00 | 47 | 992.7 |
| 20260906014719 | 77 | 82 | 0.9 | 3.5 | 0.00 | 0.00 | 0.00 | 46 | 992.8 |
| 20260906014220 | 77 | 51 | 0.9 | 5.2 | 0.00 | 0.00 | 0.00 | 46 | 992.6 |
| 20260906013720 | 77 | 53 | 0.9 | 5.2 | 0.00 | 0.00 | 0.00 | 46 | 992.6 |
| 20260906012719 | 78 | 76 | 0.9 | 5.2 | 0.00 | 0.00 | 0.00 | 46 | 992.5 |
| 20260906011719 | 78 | 91 | 0.9 | 4.3 | 0.00 | 0.00 | 0.00 | 46 | 992.3 |
| 20260906011217 | 78 | 111 | 0.9 | 4.3 | 0.00 | 0.00 | 0.00 | 46 | 992.2 |
| 20260906010715 | 78 | 77 | 0.9 | 2.6 | 0.00 | 0.00 | 0.00 | 46 | 992.2 |
| 20260906010213 | 78 | 103 | 1.7 | 6.1 | 0.00 | 0.00 | 0.00 | 46 | 992.1 |
| 20260906005711 | 78 | 100 | 2.6 | 7.0 | 0.00 | 0.00 | 0.00 | 46 | 992.0 |
| 20260906005209 | 78 | 96 | 1.7 | 7.0 | 0.00 | 0.00 | 0.00 | 45 | 992.1 |
| 20260906004708 | 78 | 104 | 1.7 | 5.2 | 0.00 | 0.00 | 0.00 | 45 | 992.0 |
| 20260906004207 | 78 | 82 | 1.7 | 4.3 | 0.00 | 0.00 | 0.00 | 45 | 992.1 |
| 20260906003705 | 78 | 74 | 1.7 | 4.3 | 0.00 | 0.00 | 0.00 | 45 | 992.1 |
| 20260906003205 | 79 | 62 | 1.7 | 5.2 | 0.00 | 0.00 | 0.00 | 44 | 992.1 |
| 20260906002703 | 79 | 74 | 1.7 | 5.2 | 0.00 | 0.00 | 0.00 | 44 | 992.3 |
| 20260906002203 | 79 | 46 | 1.7 | 5.2 | 0.00 | 0.00 | 0.00 | 44 | 992.3 |
| 20260906001703 | 79 | 80 | 1.7 | 5.2 | 0.00 | 0.00 | 0.00 | 43 | 992.4 |
| 20260906001157 | 79 | 90 | 1.7 | 5.2 | 0.00 | 0.00 | 0.00 | 43 | 992.3 |
| 20260906000651 | 79 | 105 | 1.7 | 5.2 | 0.00 | 0.00 | 0.00 | 43 | 992.4 |
| 20260905235639 | 79 | 26 | 1.7 | 5.2 | 0.00 | 0.00 | 0.00 | 42 | 992.5 |
| 20260905234627 | 79 | 96 | 2.6 | 7.0 | 0.00 | 0.00 | 0.00 | 42 | 992.4 |
| 20260905234127 | 80 | 68 | 2.6 | 7.8 | 0.00 | 0.00 | 0.00 | 42 | 992.4 |
| 20260905233627 | 80 | 88 | 2.6 | 7.8 | 0.00 | 0.00 | 0.00 | 42 | 992.3 |
| 20260905233127 | 80 | 28 | 1.7 | 7.8 | 0.00 | 0.00 | 0.00 | 42 | 992.4 |
| 20260905232627 | 80 | 23 | 1.7 | 7.8 | 0.00 | 0.00 | 0.00 | 41 | 992.5 |
| 20260905232127 | 80 | 55 | 2.6 | 7.8 | 0.00 | 0.00 | 0.00 | 41 | 992.5 |
| 20260905231627 | 80 | 47 | 3.5 | 8.7 | 0.00 | 0.01 | 0.00 | 41 | 992.4 |
| 20260905231127 | 80 | 92 | 3.5 | 8.7 | 0.00 | 0.01 | 0.00 | 40 | 992.4 |
| 20260905230627 | 80 | 133 | 3.5 | 12.2 | 0.00 | 0.01 | 0.00 | 40 | 992.5 |
| 20260905230127 | 80 | 128 | 4.3 | 12.2 | 0.00 | 0.01 | 0.00 | 40 | 992.5 |
| 20260905225623 | 81 | 117 | 3.5 | 9.6 | 0.00 | 0.01 | 0.00 | 39 | 992.4 |
| 20260905225124 | 81 | 103 | 2.6 | 8.7 | 0.00 | 0.01 | 0.00 | 39 | 992.5 |
| 20260905224622 | 82 | 41 | 2.6 | 11.3 | 0.00 | 0.01 | 0.00 | 38 | 992.4 |
| 20260905224123 | 82 | 36 | 3.5 | 11.3 | 0.00 | 0.01 | 0.00 | 39 | 992.5 |
| 20260905223623 | 82 | 25 | 3.5 | 13.0 | 0.00 | 0.01 | 0.00 | 39 | 992.5 |
| 20260905223123 | 83 | 68 | 2.6 | 13.0 | 0.00 | 0.01 | 0.00 | 38 | 992.5 |
| 20260905222622 | 82 | 62 | 3.5 | 9.6 | 0.00 | 0.01 | 0.00 | 38 | 992.4 |
| 20260905221623 | 82 | 49 | 4.3 | 8.7 | 0.00 | 0.01 | 0.00 | 39 | 992.2 |
| 20260905221123 | 83 | 91 | 3.5 | 9.6 | 0.00 | 0.01 | 0.00 | 39 | 992.3 |
| 20260905220623 | 83 | 88 | 4.3 | 13.0 | 0.00 | 0.01 | 0.00 | 38 | 992.3 |
| 20260905220124 | 83 | 53 | 4.3 | 13.0 | 0.00 | 0.01 | 0.00 | 38 | 992.5 |
| 20260905213623 | 83 | 111 | 3.5 | 8.7 | 0.00 | 0.01 | 0.00 | 38 | 992.4 |
| 20260905213123 | 83 | 45 | 3.5 | 10.4 | 0.00 | 0.01 | 0.00 | 38 | 992.3 |
| 20260905212110 | 84 | 13 | 2.6 | 9.6 | 0.00 | 0.01 | 0.00 | 37 | 992.1 |
| 20260905211058 | 83 | 11 | 2.6 | 7.0 | 0.00 | 0.01 | 0.00 | 38 | 992.1 |
| 20260905210552 | 83 | 107 | 2.6 | 7.0 | 0.00 | 0.01 | 0.00 | 38 | 992.3 |
| 20260905210051 | 83 | 28 | 3.5 | 8.7 | 0.00 | 0.01 | 0.00 | 38 | 992.3 |
| 20260905205050 | 84 | 22 | 1.7 | 10.4 | 0.00 | 0.01 | 0.00 | 38 | 992.1 |
| 20260905204550 | 83 | 77 | 1.7 | 7.8 | 0.00 | 0.01 | 0.00 | 39 | 992.2 |
| 20260905204051 | 83 | 128 | 3.5 | 9.6 | 0.00 | 0.01 | 0.00 | 40 | 992.2 |
| 20260905203551 | 84 | 326 | 3.5 | 9.6 | 0.00 | 0.01 | 0.00 | 39 | 992.1 |
| 20260905203049 | 84 | 42 | 2.6 | 8.7 | 0.00 | 0.01 | 0.00 | 38 | 992.2 |
| 20260905202549 | 84 | 55 | 2.6 | 7.8 | 0.00 | 0.01 | 0.00 | 39 | 992.0 |
| 20260905202048 | 84 | 20 | 1.7 | 7.0 | 0.00 | 0.01 | 0.00 | 39 | 992.1 |
| 20260905201548 | 84 | 35 | 2.6 | 7.0 | 0.00 | 0.01 | 0.00 | 40 | 992.5 |
| 20260905201049 | 84 | 44 | 2.6 | 7.0 | 0.00 | 0.01 | 0.00 | 39 | 992.6 |
| 20260905200550 | 84 | 34 | 2.6 | 7.0 | 0.00 | 0.01 | 0.00 | 40 | 992.5 |
| 20260905200048 | 83 | 70 | 2.6 | 7.0 | 0.00 | 0.01 | 0.00 | 40 | 992.5 |
| 20260905195548 | 83 | 71 | 2.6 | 7.0 | 0.00 | 0.01 | 0.00 | 41 | 992.6 |
| 20260905194049 | 81 | 306 | 2.6 | 7.0 | 0.00 | 0.01 | 0.00 | 43 | 992.6 |
| 20260905193543 | 81 | 51 | 2.6 | 7.0 | 0.00 | 0.01 | 0.00 | 44 | 992.8 |
| 20260905193037 | 81 | 15 | 2.6 | 7.0 | 0.00 | 0.01 | 0.00 | 44 | 992.9 |
| 20260905192530 | 81 | 76 | 2.6 | 7.0 | 0.00 | 0.01 | 0.00 | 45 | 992.8 |
| 20260905192025 | 81 | 82 | 2.6 | 6.1 | 0.00 | 0.01 | 0.00 | 45 | 992.7 |
| 20260905191519 | 81 | 105 | 1.7 | 5.2 | 0.00 | 0.01 | 0.00 | 44 | 992.7 |
| 20260905190506 | 80 | 5 | 1.7 | 3.5 | 0.00 | 0.01 | 0.00 | 45 | 992.8 |
| 20260905190001 | 80 | 80 | 2.6 | 7.0 | 0.00 | 0.01 | 0.00 | 46 | 992.9 |
| 20260905185454 | 80 | 33 | 2.6 | 7.0 | 0.00 | 0.01 | 0.00 | 46 | 993.0 |
| 20260905184442 | 80 | 5 | 1.7 | 7.0 | 0.00 | 0.01 | 0.00 | 46 | 993.1 |
| 20260905183936 | 80 | 40 | 1.7 | 7.0 | 0.00 | 0.01 | 0.00 | 46 | 993.0 |
| 20260905183430 | 80 | 42 | 1.7 | 6.1 | 0.00 | 0.01 | 0.00 | 46 | 993.1 |
| 20260905182924 | 79 | 113 | 2.6 | 9.6 | 0.00 | 0.01 | 0.00 | 47 | 993.0 |
| 20260905181912 | 80 | 61 | 2.6 | 6.1 | 0.00 | 0.01 | 0.00 | 46 | 992.9 |
| 20260905181406 | 79 | 86 | 2.6 | 7.0 | 0.00 | 0.01 | 0.00 | 46 | 992.8 |
| 20260905180354 | 79 | 88 | 2.6 | 7.0 | 0.00 | 0.01 | 0.00 | 47 | 992.9 |
| 20260905175848 | 79 | 88 | 3.5 | 7.0 | 0.00 | 0.01 | 0.00 | 47 | 992.9 |
| 20260905175342 | 79 | 107 | 2.6 | 7.0 | 0.00 | 0.01 | 0.00 | 46 | 992.8 |
| 20260905174836 | 80 | 102 | 2.6 | 7.8 | 0.00 | 0.01 | 0.00 | 46 | 992.9 |
| 20260905174333 | 79 | 62 | 2.6 | 7.8 | 0.00 | 0.01 | 0.00 | 47 | 992.9 |
| 20260905173833 | 79 | 56 | 1.7 | 8.7 | 0.00 | 0.01 | 0.00 | 47 | 993.2 |
| 20260905173332 | 79 | 100 | 2.6 | 8.7 | 0.00 | 0.01 | 0.00 | 47 | 993.1 |
| 20260905172832 | 79 | 82 | 3.5 | 8.7 | 0.00 | 0.01 | 0.00 | 47 | 993.0 |
| 20260905172330 | 79 | 84 | 2.6 | 7.8 | 0.00 | 0.01 | 0.00 | 47 | 993.1 |
| 20260905171828 | 79 | 41 | 3.5 | 7.8 | 0.00 | 0.01 | 0.00 | 47 | 993.1 |
| 20260905171328 | 80 | 57 | 3.5 | 7.8 | 0.00 | 0.01 | 0.00 | 46 | 993.2 |
| 20260905170826 | 80 | 34 | 2.6 | 7.0 | 0.00 | 0.01 | 0.00 | 46 | 993.3 |
| 20260905165826 | 80 | 118 | 2.6 | 7.8 | 0.00 | 0.01 | 0.00 | 45 | 993.4 |
| 20260905164825 | 81 | 36 | 1.7 | 5.2 | 0.00 | 0.02 | 0.00 | 45 | 993.5 |
| 20260905164324 | 80 | 86 | 1.7 | 5.2 | 0.00 | 0.02 | 0.00 | 45 | 993.4 |
| 20260905163322 | 80 | 84 | 2.6 | 7.8 | 0.00 | 0.02 | 0.00 | 45 | 993.3 |
| 20260905162822 | 80 | 108 | 2.6 | 7.8 | 0.00 | 0.02 | 0.00 | 46 | 993.4 |
| 20260905162322 | 80 | 44 | 2.6 | 7.0 | 0.00 | 0.02 | 0.00 | 46 | 993.4 |
| 20260905161822 | 80 | 138 | 3.5 | 7.0 | 0.00 | 0.02 | 0.00 | 45 | 993.4 |
| 20260905161323 | 80 | 45 | 3.5 | 9.6 | 0.00 | 0.02 | 0.00 | 45 | 993.5 |